LGL9513 ELLX-EDDH

Flight info

Callsign LGL9513
Flight time 1h 0m
Altitude 23000
Route DIK N853 HMM M170 ZEPHE/N0362F210 M170 BASUM T903 MUBZI M105 RIBSO RIBSO7A
Aircraft DH8D/M-SDFGIRY/H

Departure

Time 2026-05-07 13:58
Airport Luxembourg-Findel International Airport (ELLX)

Arrival

Time 2026-05-07 14:58
Airport Hamburg Helmut Schmidt Airport (EDDH)
Time Latitude Longitude Altitude Speed Heading
2026-05-07 13:27 49.63255 6.21426 1235 ft 0 kts 240°
2026-05-07 13:48 49.63258 6.21439 1234 ft 2 kts 252°
2026-05-07 13:49 49.63261 6.21462 1234 ft 2 kts 267°
2026-05-07 13:49 49.63260 6.21485 1234 ft 2 kts 280°
2026-05-07 13:49 49.63255 6.21506 1234 ft 2 kts 300°
2026-05-07 13:49 49.63250 6.21519 1234 ft 0 kts 282°
2026-05-07 13:50 49.63251 6.21530 1233 ft 2 kts 232°
2026-05-07 13:50 49.63260 6.21548 1233 ft 2 kts 237°
2026-05-07 13:50 49.63268 6.21567 1233 ft 1 kts 237°
2026-05-07 13:50 49.63271 6.21575 1233 ft 0 kts 239°
2026-05-07 13:53 49.63271 6.21574 1232 ft 0 kts 239°
2026-05-07 13:53 49.63261 6.21547 1233 ft 7 kts 240°
2026-05-07 13:54 49.63209 6.21547 1233 ft 10 kts 149°
2026-05-07 13:54 49.63136 6.21612 1231 ft 13 kts 149°
2026-05-07 13:54 49.63064 6.21598 1231 ft 13 kts 242°
2026-05-07 13:54 49.63018 6.21453 1234 ft 16 kts 244°
2026-05-07 13:55 49.62966 6.21284 1236 ft 18 kts 244°
2026-05-07 13:55 49.62913 6.21116 1238 ft 15 kts 244°
2026-05-07 13:55 49.62870 6.20975 1239 ft 13 kts 244°
2026-05-07 13:55 49.62832 6.20854 1239 ft 11 kts 245°
2026-05-07 13:56 49.62773 6.20756 1239 ft 14 kts 199°
2026-05-07 13:56 49.62673 6.20700 1238 ft 15 kts 202°
2026-05-07 13:56 49.62567 6.20637 1235 ft 16 kts 200°
2026-05-07 13:56 49.62465 6.20575 1233 ft 14 kts 207°
2026-05-07 13:57 49.62431 6.20578 1233 ft 3 kts 89°
2026-05-07 13:57 49.62459 6.20653 1234 ft 30 kts 60°
2026-05-07 13:57 49.62732 6.21390 1235 ft 123 kts 59°
2026-05-07 13:57 49.63241 6.22770 1376 ft 163 kts 62°
2026-05-07 13:58 49.63809 6.24371 1976 ft 177 kts 60°
2026-05-07 13:58 49.64407 6.26075 2638 ft 190 kts 61°
2026-05-07 13:58 49.65077 6.27968 3014 ft 210 kts 59°
2026-05-07 13:58 49.65818 6.29914 3642 ft 216 kts 58°
2026-05-07 13:59 49.66569 6.31908 4323 ft 219 kts 58°
2026-05-07 13:59 49.67345 6.33918 5038 ft 221 kts 58°
2026-05-07 13:59 49.68117 6.35971 5710 ft 226 kts 58°
2026-05-07 13:59 49.68942 6.38033 6417 ft 228 kts 51°
2026-05-07 14:00 49.70089 6.39671 7129 ft 228 kts 33°
2026-05-07 14:00 49.71539 6.40640 7774 ft 231 kts 12°
2026-05-07 14:00 49.73125 6.40731 8425 ft 233 kts 350°
2026-05-07 14:00 49.74629 6.39804 9060 ft 235 kts 320°
2026-05-07 14:01 49.75686 6.37897 9733 ft 237 kts 305°
2026-05-07 14:01 49.76621 6.35842 10407 ft 239 kts 304°
2026-05-07 14:01 49.77562 6.33707 11081 ft 241 kts 303°
2026-05-07 14:01 49.78482 6.31567 11714 ft 243 kts 302°
2026-05-07 14:02 49.79415 6.29366 12318 ft 246 kts 302°
2026-05-07 14:02 49.80341 6.27153 12937 ft 247 kts 302°
2026-05-07 14:02 49.81271 6.24914 13521 ft 249 kts 302°
2026-05-07 14:02 49.82193 6.22678 14055 ft 252 kts 301°
2026-05-07 14:03 49.83136 6.20381 14592 ft 254 kts 301°
2026-05-07 14:03 49.84084 6.18063 15105 ft 257 kts 301°
2026-05-07 14:03 49.85038 6.15727 15632 ft 258 kts 302°
2026-05-07 14:03 49.86256 6.13715 16101 ft 261 kts 328°
2026-05-07 14:04 49.87980 6.13117 16515 ft 264 kts
2026-05-07 14:04 49.89749 6.13971 16995 ft 266 kts 22°
2026-05-07 14:04 49.91417 6.15150 17501 ft 265 kts 24°
2026-05-07 14:04 49.93048 6.16384 18054 ft 263 kts 25°
2026-05-07 14:05 49.94688 6.17681 18512 ft 264 kts 26°
2026-05-07 14:05 49.96303 6.18999 18958 ft 265 kts 27°
2026-05-07 14:05 49.97921 6.20352 19400 ft 265 kts 27°
2026-05-07 14:05 49.99531 6.21719 19832 ft 265 kts 27°
2026-05-07 14:06 50.01151 6.23113 20258 ft 265 kts 27°
2026-05-07 14:06 50.02743 6.24495 20665 ft 264 kts 27°
2026-05-07 14:06 50.04345 6.25896 21057 ft 263 kts 28°
2026-05-07 14:06 50.05928 6.27287 21431 ft 263 kts 28°
2026-05-07 14:07 50.07522 6.28694 21792 ft 262 kts 28°
2026-05-07 14:07 50.09102 6.30093 22137 ft 261 kts 28°
2026-05-07 14:07 50.10676 6.31491 22465 ft 261 kts 28°
2026-05-07 14:07 50.12229 6.32873 22776 ft 260 kts 28°
2026-05-07 14:08 50.13833 6.34302 22947 ft 268 kts 28°
2026-05-07 14:08 50.15470 6.35762 22999 ft 279 kts 28°
2026-05-07 14:08 50.17194 6.37302 23012 ft 291 kts 28°
2026-05-07 14:08 50.18966 6.38887 23015 ft 302 kts 28°
2026-05-07 14:09 50.20815 6.40543 23013 ft 312 kts 28°
2026-05-07 14:09 50.22711 6.42243 23012 ft 320 kts 28°
2026-05-07 14:09 50.24662 6.43995 23009 ft 327 kts 28°
2026-05-07 14:09 50.26647 6.45780 23005 ft 332 kts 28°
2026-05-07 14:10 50.28656 6.47588 23006 ft 337 kts 28°
2026-05-07 14:10 50.30698 6.49429 23003 ft 341 kts 28°
2026-05-07 14:10 50.32740 6.51271 23000 ft 344 kts 28°
2026-05-07 14:10 50.34839 6.53167 23000 ft 346 kts 28°
2026-05-07 14:11 50.36906 6.55036 23002 ft 348 kts 28°
2026-05-07 14:11 50.38999 6.56930 23000 ft 349 kts 28°
2026-05-07 14:11 50.41106 6.58839 23000 ft 350 kts 28°
2026-05-07 14:11 50.43198 6.60738 23001 ft 351 kts 28°
2026-05-07 14:12 50.45324 6.62668 23002 ft 351 kts 28°
2026-05-07 14:12 50.47424 6.64577 23000 ft 352 kts 28°
2026-05-07 14:12 50.49548 6.66509 22999 ft 352 kts 29°
2026-05-07 14:12 50.51653 6.68426 23003 ft 352 kts 29°
2026-05-07 14:13 50.53764 6.70351 23008 ft 352 kts 29°
2026-05-07 14:13 50.55882 6.72284 23009 ft 352 kts 29°
2026-05-07 14:13 50.57990 6.74210 23010 ft 353 kts 29°
2026-05-07 14:13 50.60130 6.76167 23012 ft 353 kts 29°
2026-05-07 14:14 50.62227 6.78088 23010 ft 353 kts 29°
2026-05-07 14:14 50.64365 6.80048 23015 ft 353 kts 29°
2026-05-07 14:14 50.66488 6.81995 23017 ft 353 kts 29°
2026-05-07 14:14 50.68586 6.83922 23015 ft 354 kts 29°
2026-05-07 14:15 50.70701 6.85867 23015 ft 354 kts 29°
2026-05-07 14:15 50.72820 6.87818 23014 ft 354 kts 29°
2026-05-07 14:15 50.74941 6.89772 23019 ft 354 kts 29°
2026-05-07 14:15 50.77058 6.91725 23021 ft 354 kts 29°
2026-05-07 14:16 50.79197 6.93701 23022 ft 354 kts 29°
2026-05-07 14:16 50.81321 6.95664 23020 ft 354 kts 29°
2026-05-07 14:16 50.83441 6.97626 23022 ft 354 kts 29°
2026-05-07 14:16 50.85554 6.99583 23021 ft 355 kts 29°
2026-05-07 14:17 50.87691 7.01565 23022 ft 355 kts 29°
2026-05-07 14:17 50.89820 7.03542 23023 ft 355 kts 29°
2026-05-07 14:17 50.91949 7.05521 23023 ft 355 kts 29°
2026-05-07 14:17 50.94069 7.07493 23022 ft 355 kts 29°
2026-05-07 14:18 50.96133 7.09415 23023 ft 355 kts 29°
2026-05-07 14:18 50.98255 7.11394 23023 ft 355 kts 29°
2026-05-07 14:18 51.00378 7.13375 23021 ft 355 kts 29°
2026-05-07 14:18 51.02507 7.15365 23022 ft 355 kts 29°
2026-05-07 14:19 51.04604 7.17326 23015 ft 355 kts 29°
2026-05-07 14:19 51.06726 7.19312 23015 ft 355 kts 29°
2026-05-07 14:19 51.08853 7.21306 23012 ft 355 kts 30°
2026-05-07 14:19 51.10968 7.23290 23010 ft 355 kts 30°
2026-05-07 14:20 51.13094 7.25288 23014 ft 354 kts 30°
2026-05-07 14:20 51.15234 7.27300 23014 ft 355 kts 30°
2026-05-07 14:20 51.17339 7.29281 23015 ft 355 kts 30°
2026-05-07 14:20 51.19465 7.31286 23020 ft 355 kts 29°
2026-05-07 14:21 51.21602 7.33303 23022 ft 355 kts 29°
2026-05-07 14:21 51.23705 7.35289 23024 ft 355 kts 29°
2026-05-07 14:21 51.25845 7.37312 23023 ft 355 kts 29°
2026-05-07 14:21 51.27958 7.39312 23023 ft 355 kts 29°
2026-05-07 14:22 51.30089 7.41331 23026 ft 355 kts 30°
2026-05-07 14:22 51.32214 7.43346 23025 ft 355 kts 30°
2026-05-07 14:22 51.34337 7.45363 23027 ft 355 kts 30°
2026-05-07 14:22 51.36453 7.47374 23034 ft 355 kts 30°
2026-05-07 14:23 51.38555 7.49374 23037 ft 355 kts 30°
2026-05-07 14:23 51.40692 7.51410 23040 ft 355 kts 30°
2026-05-07 14:23 51.42796 7.53417 23039 ft 356 kts 30°
2026-05-07 14:23 51.44933 7.55457 23040 ft 356 kts 30°
2026-05-07 14:24 51.47029 7.57460 23041 ft 356 kts 29°
2026-05-07 14:24 51.49155 7.59495 23044 ft 356 kts 29°
2026-05-07 14:24 51.51273 7.61524 23050 ft 356 kts 29°
2026-05-07 14:24 51.53419 7.63582 23050 ft 356 kts 30°
2026-05-07 14:25 51.55545 7.65623 23048 ft 356 kts 30°
2026-05-07 14:25 51.57669 7.67665 23050 ft 355 kts 30°
2026-05-07 14:25 51.59771 7.69687 23052 ft 355 kts 30°
2026-05-07 14:25 51.61892 7.71730 23051 ft 356 kts 30°
2026-05-07 14:26 51.64005 7.73767 23053 ft 356 kts 30°
2026-05-07 14:26 51.66119 7.75807 23053 ft 356 kts 30°
2026-05-07 14:26 51.68262 7.77878 23050 ft 356 kts 30°
2026-05-07 14:26 51.70376 7.79924 23052 ft 356 kts 30°
2026-05-07 14:27 51.72492 7.81973 23049 ft 356 kts 30°
2026-05-07 14:27 51.74616 7.84032 23053 ft 356 kts 30°
2026-05-07 14:27 51.76741 7.86096 23057 ft 357 kts 30°
2026-05-07 14:27 51.78839 7.88134 23055 ft 357 kts 30°
2026-05-07 14:28 51.80984 7.90221 23059 ft 357 kts 30°
2026-05-07 14:28 51.83095 7.92277 23055 ft 357 kts 30°
2026-05-07 14:28 51.85205 7.94334 23056 ft 357 kts 30°
2026-05-07 14:28 51.87323 7.96402 23060 ft 357 kts 30°
2026-05-07 14:29 51.89449 7.98479 23062 ft 357 kts 30°
2026-05-07 14:29 51.91568 8.00551 23064 ft 357 kts 31°
2026-05-07 14:29 51.93693 8.02633 23066 ft 357 kts 31°
2026-05-07 14:29 51.95817 8.04715 23065 ft 357 kts 31°
2026-05-07 14:30 51.97942 8.06801 23066 ft 357 kts 31°
2026-05-07 14:30 52.00067 8.08889 23063 ft 357 kts 31°
2026-05-07 14:30 52.02193 8.10981 23065 ft 357 kts 30°
2026-05-07 14:30 52.04293 8.13050 23065 ft 357 kts 30°
2026-05-07 14:31 52.06432 8.15158 23064 ft 357 kts 30°
2026-05-07 14:31 52.08534 8.17233 23066 ft 357 kts 30°
2026-05-07 14:31 52.10635 8.19309 23066 ft 356 kts 30°
2026-05-07 14:31 52.12770 8.21420 23066 ft 356 kts 30°
2026-05-07 14:32 52.14895 8.23525 23065 ft 356 kts 30°
2026-05-07 14:32 52.16998 8.25610 23066 ft 356 kts 30°
2026-05-07 14:32 52.19099 8.27696 23065 ft 356 kts 30°
2026-05-07 14:32 52.21217 8.29756 23061 ft 355 kts 28°
2026-05-07 14:33 52.23417 8.31653 23059 ft 355 kts 25°
2026-05-07 14:33 52.25709 8.33064 23071 ft 354 kts 17°
2026-05-07 14:33 52.28051 8.34230 23067 ft 354 kts 15°
2026-05-07 14:33 52.30422 8.35394 23066 ft 354 kts 15°
2026-05-07 14:34 52.32758 8.36536 23067 ft 355 kts 15°
2026-05-07 14:34 52.35138 8.37701 23068 ft 354 kts 15°
2026-05-07 14:34 52.37488 8.38851 23069 ft 354 kts 15°
2026-05-07 14:34 52.39856 8.40010 23071 ft 354 kts 15°
2026-05-07 14:35 52.42188 8.41154 23071 ft 354 kts 15°
2026-05-07 14:35 52.44555 8.42315 23070 ft 354 kts 15°
2026-05-07 14:35 52.46891 8.43462 23070 ft 354 kts 15°
2026-05-07 14:35 52.49267 8.44630 23071 ft 354 kts 15°
2026-05-07 14:36 52.51613 8.45784 23072 ft 354 kts 15°
2026-05-07 14:36 52.53961 8.46941 23073 ft 354 kts 15°
2026-05-07 14:36 52.56321 8.48105 23074 ft 354 kts 15°
2026-05-07 14:36 52.58670 8.49264 22959 ft 355 kts 15°
2026-05-07 14:37 52.61030 8.50428 22696 ft 351 kts 15°
2026-05-07 14:37 52.65647 8.52707 22146 ft 344 kts 15°
2026-05-07 14:37 52.67914 8.53828 21742 ft 342 kts 15°
2026-05-07 14:38 52.70169 8.54945 21320 ft 340 kts 15°
2026-05-07 14:38 52.72436 8.56069 20899 ft 338 kts 15°
2026-05-07 14:38 52.74654 8.57171 20483 ft 335 kts 15°
2026-05-07 14:38 52.76873 8.58274 20068 ft 333 kts 15°
2026-05-07 14:39 52.79084 8.59375 19648 ft 330 kts 15°
2026-05-07 14:39 52.81249 8.60454 19198 ft 326 kts 15°
2026-05-07 14:39 52.83408 8.61527 18673 ft 320 kts 15°
2026-05-07 14:39 52.85506 8.62578 18156 ft 315 kts 16°
2026-05-07 14:40 52.87441 8.64190 17620 ft 312 kts 37°
2026-05-07 14:40 52.89014 8.66630 17270 ft 309 kts 44°
2026-05-07 14:40 52.90521 8.69126 17016 ft 308 kts 45°
2026-05-07 14:40 52.92021 8.71629 16757 ft 308 kts 45°
2026-05-07 14:41 52.93533 8.74160 16494 ft 307 kts 45°
2026-05-07 14:41 52.95011 8.76643 16237 ft 305 kts 45°
2026-05-07 14:41 52.96508 8.79160 15970 ft 304 kts 45°
2026-05-07 14:41 52.97975 8.81630 15726 ft 303 kts 45°
2026-05-07 14:42 52.99442 8.84102 15422 ft 304 kts 45°
2026-05-07 14:42 53.00939 8.86628 15085 ft 303 kts 45°
2026-05-07 14:42 53.02402 8.89100 14749 ft 302 kts 45°
2026-05-07 14:42 53.03862 8.91570 14416 ft 300 kts 45°
2026-05-07 14:43 53.05315 8.94031 14082 ft 299 kts 45°
2026-05-07 14:43 53.06765 8.96489 13747 ft 298 kts 45°
2026-05-07 14:43 53.08201 8.98928 13419 ft 297 kts 45°
2026-05-07 14:43 53.09647 9.01383 13084 ft 290 kts 45°
2026-05-07 14:44 53.11030 9.03727 12759 ft 278 kts 45°
2026-05-07 14:44 53.12363 9.05990 12445 ft 269 kts 45°
2026-05-07 14:44 53.13638 9.08159 12152 ft 262 kts 45°
2026-05-07 14:44 53.14901 9.10317 11865 ft 260 kts 45°
2026-05-07 14:45 53.16166 9.12478 11572 ft 258 kts 45°
2026-05-07 14:45 53.17404 9.14594 11285 ft 256 kts 45°
2026-05-07 14:45 53.18652 9.16729 10989 ft 255 kts 45°
2026-05-07 14:45 53.19880 9.18833 10659 ft 255 kts 45°
2026-05-07 14:46 53.21109 9.20938 10353 ft 252 kts 45°
2026-05-07 14:46 53.22312 9.23000 10068 ft 249 kts 45°
2026-05-07 14:46 53.23510 9.25055 9790 ft 246 kts 46°
2026-05-07 14:46 53.24698 9.27094 9513 ft 243 kts 46°
2026-05-07 14:47 53.25878 9.29122 9241 ft 240 kts 46°
2026-05-07 14:47 53.27028 9.31101 8976 ft 238 kts 46°
2026-05-07 14:47 53.28170 9.33066 8713 ft 235 kts 46°
2026-05-07 14:47 53.29298 9.35013 8451 ft 235 kts 46°
2026-05-07 14:48 53.30440 9.36987 8186 ft 235 kts 46°
2026-05-07 14:48 53.31571 9.38944 7920 ft 235 kts 46°
2026-05-07 14:48 53.32706 9.40912 7659 ft 234 kts 46°
2026-05-07 14:48 53.33830 9.42853 7400 ft 232 kts 46°
2026-05-07 14:49 53.34934 9.44778 7170 ft 228 kts 46°
2026-05-07 14:49 53.36019 9.46678 6958 ft 224 kts 46°
2026-05-07 14:49 53.37087 9.48544 6751 ft 221 kts 47°
2026-05-07 14:49 53.38150 9.50398 6525 ft 217 kts 46°
2026-05-07 14:50 53.39187 9.52202 6318 ft 214 kts 47°
2026-05-07 14:50 53.40207 9.53974 6114 ft 212 kts 46°
2026-05-07 14:50 53.41215 9.55727 5903 ft 209 kts 46°
2026-05-07 14:50 53.42223 9.57474 5703 ft 206 kts 46°
2026-05-07 14:51 53.43216 9.59189 5494 ft 204 kts 46°
2026-05-07 14:51 53.44178 9.60890 5312 ft 198 kts 49°
2026-05-07 14:51 53.45042 9.62606 5097 ft 189 kts 51°
2026-05-07 14:51 53.45868 9.64304 4846 ft 188 kts 51°
2026-05-07 14:52 53.46706 9.66017 4642 ft 189 kts 51°
2026-05-07 14:52 53.47553 9.67717 4415 ft 189 kts 51°
2026-05-07 14:52 53.48394 9.69396 4165 ft 188 kts 51°
2026-05-07 14:52 53.49222 9.71042 3878 ft 179 kts 51°
2026-05-07 14:53 53.50004 9.72602 3615 ft 173 kts 51°
2026-05-07 14:53 53.50761 9.74127 3403 ft 169 kts 51°
2026-05-07 14:53 53.51512 9.75632 3190 ft 165 kts 51°
2026-05-07 14:53 53.52242 9.77095 3002 ft 160 kts 51°
2026-05-07 14:54 53.52939 9.78495 2831 ft 157 kts 52°
2026-05-07 14:54 53.53636 9.79897 2606 ft 155 kts 52°
2026-05-07 14:54 53.54319 9.81266 2382 ft 151 kts 52°
2026-05-07 14:54 53.54981 9.82591 2164 ft 145 kts 52°
2026-05-07 14:55 53.55614 9.83861 1958 ft 138 kts 52°
2026-05-07 14:55 53.56214 9.85068 1773 ft 129 kts 52°
2026-05-07 14:55 53.56767 9.86194 1687 ft 123 kts 52°
2026-05-07 14:55 53.57328 9.87331 1537 ft 130 kts 52°
2026-05-07 14:56 53.57936 9.88528 1349 ft 136 kts 51°
2026-05-07 14:56 53.58541 9.89751 1142 ft 137 kts 51°
2026-05-07 14:56 53.59140 9.90960 966 ft 135 kts 52°
2026-05-07 14:56 53.59739 9.92165 785 ft 131 kts 50°
2026-05-07 14:57 53.60331 9.93339 618 ft 133 kts 52°
2026-05-07 14:57 53.60920 9.94546 438 ft 132 kts 49°
2026-05-07 14:57 53.61504 9.95720 256 ft 131 kts 51°
2026-05-07 14:57 53.62085 9.96897 96 ft 130 kts 50°
2026-05-07 14:58 53.62612 9.97963 63 ft 93 kts 50°
2026-05-07 14:58 53.62938 9.98622 63 ft 58 kts 50°
2026-05-07 14:58 53.63153 9.99058 63 ft 40 kts 50°
2026-05-07 14:58 53.63302 9.99362 63 ft 19 kts 54°
2026-05-07 14:59 53.63293 9.99509 63 ft 9 kts 106°
2026-05-07 14:59 53.63280 9.99610 63 ft 9 kts 99°
2026-05-07 14:59 53.63273 9.99689 63 ft 5 kts 105°
2026-05-07 14:59 53.63242 9.99743 63 ft 8 kts 151°
2026-05-07 15:00 53.63172 9.99805 63 ft 13 kts 152°
2026-05-07 15:00 53.63082 9.99882 63 ft 14 kts 153°
2026-05-07 15:00 53.63047 9.99976 63 ft 7 kts 97°
2026-05-07 15:00 53.63044 10.00016 63 ft 3 kts 99°
2026-05-07 15:01 53.63038 10.00068 63 ft 3 kts 101°
2026-05-07 15:01 53.63038 10.00072 63 ft 0 kts 100°